• In Hungary
  • List of Countries
  • For 7 days
  • Water Temperature
  • Satellite Maps
  • Weather Map
  • News
  • Weather Widgets
  • user-avatar
    Login

    Hourly Weather Shillong

    Today, 21 January, Sunday

    Time Temperature Precipitation Wind Pressure Humidity
    00:00 +9°C° 0 mm 1 mps 632 mmHg 89%
    01:00 +9°C° 0.1 mm 1 mps 632 mmHg 90%
    02:00 +9°C° 0.1 mm 1 mps 632 mmHg 90%
    03:00 +9°C° 0.1 mm 1 mps 632 mmHg 90%
    04:00 +9°C° 0 mm 1 mps 632 mmHg 91%
    05:00 +8°C° 0 mm 1 mps 632 mmHg 92%
    06:00 +8°C° 0 mm 0 mps 631 mmHg 93%
    07:00 +9°C° 0 mm 0 mps 632 mmHg 88%
    08:00 +10°C° 0 mm 0 mps 633 mmHg 83%
    09:00 +12°C° 0 mm 0 mps 634 mmHg 77%
    10:00 +13°C° 0.1 mm 1 mps 634 mmHg 75%
    11:00 +14°C° 0.1 mm 1 mps 634 mmHg 72%
    12:00 +15°C° 0.1 mm 1 mps 634 mmHg 69%
    13:00 +15°C° 0.1 mm 1 mps 633 mmHg 69%
    14:00 +14°C° 0.1 mm 0 mps 633 mmHg 69%
    15:00 +14°C° 0.1 mm 0 mps 633 mmHg 69%
    16:00 +13°C° 0 mm 0 mps 632 mmHg 73%
    17:00 +12°C° 0 mm 0 mps 632 mmHg 77%
    18:00 +10°C° 0 mm 0 mps 631 mmHg 81%
    19:00 +10°C° 0 mm 0 mps 631 mmHg 83%
    20:00 +9°C° 0 mm 0 mps 631 mmHg 84%
    21:00 +10°C° 0 mm 1 mps 631 mmHg 85%
    22:00 +10°C° 0 mm 1 mps 631 mmHg 86%
    23:00 +9°C° 0 mm 1 mps 631 mmHg 86%

    Tomorrow, 22 January, Monday

    Time Temperature Precipitation Wind Pressure Humidity
    00:00 +9°C° 0 mm 1 mps 631 mmHg 87%
    01:00 +8°C° 0 mm 0 mps 631 mmHg 88%
    02:00 +8°C° 0 mm 0 mps 631 mmHg 89%
    03:00 +7°C° 0 mm 0 mps 630 mmHg 90%
    04:00 +7°C° 0 mm 0 mps 630 mmHg 90%
    05:00 +7°C° 0 mm 0 mps 630 mmHg 91%
    06:00 +7°C° 0 mm 0 mps 630 mmHg 91%
    07:00 +8°C° 0 mm 0 mps 631 mmHg 85%
    08:00 +11°C° 0 mm 1 mps 632 mmHg 78%
    09:00 +13°C° 0 mm 1 mps 634 mmHg 71%
    10:00 +15°C° 0 mm 1 mps 634 mmHg 64%
    11:00 +16°C° 0 mm 1 mps 634 mmHg 57%
    12:00 +18°C° 0 mm 1 mps 634 mmHg 49%
    13:00 +18°C° 0 mm 1 mps 634 mmHg 50%
    14:00 +18°C° 0 mm 1 mps 633 mmHg 50%
    15:00 +18°C° 0 mm 1 mps 632 mmHg 50%
    16:00 +15°C° 0 mm 1 mps 632 mmHg 58%
    17:00 +13°C° 0 mm 1 mps 631 mmHg 67%
    18:00 +10°C° 0 mm 0 mps 631 mmHg 75%
    19:00 +10°C° 0 mm 0 mps 631 mmHg 78%
    20:00 +11°C° 0 mm 1 mps 631 mmHg 81%
    21:00 +10°C° 0 mm 1 mps 631 mmHg 84%
    22:00 +10°C° 0 mm 1 mps 631 mmHg 85%
    23:00 +10°C° 0 mm 1 mps 631 mmHg 86%

    Day after tomorrow, 23 January, Tuesday

    Time Temperature Precipitation Wind Pressure Humidity
    00:00 +8°C° 0 mm 0 mps 631 mmHg 87%
    01:00 +8°C° 0 mm 0 mps 631 mmHg 87%
    02:00 +8°C° 0 mm 0 mps 630 mmHg 87%
    03:00 +8°C° 0 mm 0 mps 630 mmHg 88%
    04:00 +7°C° 0 mm 0 mps 630 mmHg 88%
    05:00 +7°C° 0 mm 0 mps 630 mmHg 88%
    06:00 +7°C° 0 mm 0 mps 630 mmHg 88%
    07:00 +9°C° 0 mm 0 mps 631 mmHg 80%
    08:00 +11°C° 0 mm 0 mps 633 mmHg 72%
    09:00 +13°C° 0 mm 0 mps 634 mmHg 64%
    10:00 +15°C° 0 mm 1 mps 634 mmHg 59%
    11:00 +18°C° 0 mm 1 mps 634 mmHg 53%
    12:00 +19°C° 0 mm 1 mps 634 mmHg 47%
    13:00 +19°C° 0 mm 1 mps 633 mmHg 48%
    14:00 +19°C° 0 mm 1 mps 633 mmHg 49%
    15:00 +19°C° 0 mm 1 mps 632 mmHg 51%
    16:00 +16°C° 0 mm 1 mps 631 mmHg 58%
    17:00 +13°C° 0 mm 0 mps 631 mmHg 66%
    18:00 +11°C° 0 mm 0 mps 630 mmHg 74%
    19:00 +10°C° 0 mm 0 mps 630 mmHg 76%
    20:00 +11°C° 0 mm 1 mps 631 mmHg 79%
    21:00 +11°C° 0 mm 1 mps 631 mmHg 81%
    22:00 +10°C° 0 mm 1 mps 631 mmHg 83%
    23:00 +10°C° 0 mm 1 mps 630 mmHg 84%

    24 January, Wednesday

    Time Temperature Precipitation Wind Pressure Humidity
    00:00 +9°C° 0 mm 0 mps 630 mmHg 86%
    01:00 +8°C° 0 mm 0 mps 630 mmHg 86%
    02:00 +8°C° 0 mm 0 mps 630 mmHg 87%
    03:00 +8°C° 0 mm 0 mps 629 mmHg 88%
    04:00 +7°C° 0 mm 0 mps 629 mmHg 88%
    05:00 +7°C° 0 mm 0 mps 629 mmHg 88%
    06:00 +7°C° 0 mm 0 mps 629 mmHg 88%
    07:00 +9°C° 0 mm 0 mps 630 mmHg 80%
    08:00 +11°C° 0 mm 0 mps 631 mmHg 71%
    09:00 +14°C° 0 mm 1 mps 632 mmHg 63%
    10:00 +15°C° 0 mm 1 mps 633 mmHg 57%
    11:00 +16°C° 0 mm 1 mps 633 mmHg 51%
    12:00 +19°C° 0 mm 1 mps 633 mmHg 45%
    13:00 +18°C° 0 mm 1 mps 632 mmHg 47%
    14:00 +18°C° 0 mm 1 mps 631 mmHg 48%
    15:00 +18°C° 0 mm 1 mps 631 mmHg 50%
    16:00 +15°C° 0 mm 1 mps 630 mmHg 57%
    17:00 +14°C° 0 mm 1 mps 630 mmHg 63%
    18:00 +12°C° 0 mm 1 mps 629 mmHg 70%
    19:00 +11°C° 0 mm 1 mps 630 mmHg 73%
    20:00 +11°C° 0 mm 1 mps 630 mmHg 76%
    21:00 +10°C° 0 mm 1 mps 630 mmHg 79%
    22:00 +10°C° 0 mm 1 mps 630 mmHg 79%
    23:00 +9°C° 0 mm 1 mps 630 mmHg 79%

    25 January, Thursday

    Time Temperature Precipitation Wind Pressure Humidity
    00:00 +9°C° 0 mm 1 mps 630 mmHg 80%
    01:00 +9°C° 0 mm 1 mps 629 mmHg 79%
    02:00 +9°C° 0 mm 1 mps 629 mmHg 78%
    03:00 +8°C° 0 mm 1 mps 629 mmHg 77%
    04:00 +8°C° 0 mm 1 mps 629 mmHg 75%
    05:00 +9°C° 0 mm 1 mps 629 mmHg 73%
    06:00 +9°C° 0 mm 1 mps 629 mmHg 70%
    07:00 +10°C° 0 mm 1 mps 630 mmHg 65%
    08:00 +12°C° 0 mm 1 mps 631 mmHg 59%
    09:00 +14°C° 0 mm 1 mps 633 mmHg 53%
    10:00 +15°C° 0 mm 1 mps 633 mmHg 50%
    11:00 +18°C° 0 mm 1 mps 633 mmHg 46%
    12:00 +19°C° 0 mm 1 mps 633 mmHg 42%
    13:00 +18°C° 0 mm 1 mps 633 mmHg 45%
    14:00 +18°C° 0 mm 1 mps 632 mmHg 47%
    15:00 +16°C° 0 mm 1 mps 631 mmHg 50%
    16:00 +15°C° 0 mm 1 mps 631 mmHg 55%
    17:00 +13°C° 0 mm 1 mps 630 mmHg 61%
    18:00 +12°C° 0 mm 1 mps 630 mmHg 67%
    19:00 +11°C° 0 mm 1 mps 630 mmHg 69%
    20:00 +10°C° 0 mm 1 mps 630 mmHg 71%
    21:00 +10°C° 0 mm 1 mps 630 mmHg 72%
    22:00 +10°C° 0 mm 1 mps 630 mmHg 73%
    23:00 +10°C° 0 mm 1 mps 630 mmHg 74%

    26 January, Friday

    Time Temperature Precipitation Wind Pressure Humidity
    00:00 +9°C° 0 mm 1 mps 630 mmHg 75%
    01:00 +9°C° 0.1 mm 1 mps 630 mmHg 76%
    02:00 +9°C° 0.1 mm 1 mps 630 mmHg 77%
    03:00 +9°C° 0.1 mm 1 mps 630 mmHg 78%
    04:00 +9°C° 0 mm 1 mps 630 mmHg 80%
    05:00 +8°C° 0 mm 1 mps 629 mmHg 81%
    06:00 +8°C° 0 mm 1 mps 629 mmHg 83%
    07:00 +10°C° 0 mm 1 mps 630 mmHg 75%
    08:00 +11°C° 0 mm 1 mps 631 mmHg 68%
    09:00 +13°C° 0 mm 1 mps 632 mmHg 61%
    10:00 +15°C° 0 mm 2 mps 633 mmHg 55%
    11:00 +16°C° 0 mm 2 mps 633 mmHg 50%
    12:00 +17°C° 0 mm 2 mps 633 mmHg 44%
    13:00 +17°C° 0 mm 2 mps 632 mmHg 44%
    14:00 +17°C° 0 mm 2 mps 632 mmHg 45%
    15:00 +17°C° 0 mm 2 mps 631 mmHg 45%
    16:00 +15°C° 0 mm 1 mps 630 mmHg 53%
    17:00 +13°C° 0 mm 1 mps 630 mmHg 60%
    18:00 +11°C° 0 mm 1 mps 629 mmHg 68%
    19:00 +10°C° 0 mm 1 mps 629 mmHg 69%
    20:00 +9°C° 0 mm 1 mps 629 mmHg 70%
    21:00 +9°C° 0 mm 1 mps 630 mmHg 71%
    22:00 +8°C° 0 mm 1 mps 630 mmHg 71%
    23:00 +8°C° 0 mm 1 mps 629 mmHg 70%
    Show more